{"data":{"norad_id":55010,"intl_designator":"2023-001B","name":"MENUT","alt_names":[],"object_type":"PAYLOAD","status":"ACTIVE","operator":null,"country":"SPN","launch_date":"2023-01-03","launch_site_code":"AFETR","launch_vehicle":null,"mission":null,"orbit_class":"UNKNOWN","rcs_meters":null,"size_class":null,"mass_kg":null,"dimensions":null,"purposes":[],"wikipedia_slug":null,"has_3d_model":false,"image_url":null,"decayed_at":null,"tle_current":{"epoch":"2026-05-25T04:10:05.522592Z","epoch_age_seconds":56511,"freshness":"FRESH","line1":"1 55010U 23001B   26145.17367503  .00064101  00000+0  88095-3 0  9991","line2":"2 55010  97.3165 212.4433 0005784 176.7640 183.3654 15.57077402188812","mean_motion":15.57077402,"eccentricity":0.0005784,"inclination_deg":97.3165,"raan_deg":212.4433,"arg_perigee_deg":176.764,"mean_anomaly_deg":183.3654,"bstar":0.00088095,"rev_number":18881,"period_min":92.480951695168,"perigee_km":392.20236246826,"apogee_km":400.03882365191,"semimajor_km":6774.2575930601,"source":"CELESTRAK","updated_at":"2026-05-25T13:37:58.808901Z"}}}